[[{"header":{"parameterUnit":"m.s-1","parameterCategory":1,"la1":30.2991,"la2":30.254,"lo1":-89.0895,"lo2":-89.0444,"dy":0.0017,"dx":0.0017,"nx":28,"ny":28,"refTime":"2025-04-30T09:00:00:Z","depth":0,"parameterNumber":2,"parameterNumberName":"U-component_of_WINDS"},"data":[0,0,0,0,0,0,0,0,0,0,0,0,0,0,0,0,0,0,0,0,0,0,0,0,0,0,0,0,0,0,0,0,0,0,0,0,0,0,0,0,0,0,0,0,0,0,0,0,0,0,0,0,0,0,0,0,0,0,-3.695,-3.6951,0,-3.7004,-3.7005,-3.7005,-3.6965,-3.6964,-3.6962,-3.696,-3.7011,-3.7014,-3.7017,0,0,0,0,0,0,0,0,0,0,0,0,0,-3.681,-3.6813,-3.695,-3.6951,-3.6952,-3.7004,-3.7005,-3.7005,-3.6966,-3.6964,-3.6961,-3.696,-3.701,-3.7014,-3.7018,0,0,0,0,0,0,0,0,0,0,0,0,0,-3.6868,-3.6814,-3.695,-3.6938,-3.6938,-3.7004,-3.7005,-3.7005,-3.6966,-3.6964,-3.6961,-3.6959,-3.7009,-3.7014,-3.7018,-3.7097,0,0,-3.7032,-3.7034,0,0,0,0,0,0,0,0,-3.6865,-3.6873,-3.6939,-3.6939,-3.6939,-3.6975,-3.6974,-3.7036,-3.6967,-3.6955,-3.696,-3.6957,-3.7001,-3.7006,-3.7022,-3.71,-3.7102,-3.7032,-3.7035,-3.7037,-3.7038,0,0,0,0,0,0,0,-3.6861,-3.6871,-3.6971,-3.694,-3.694,-3.6929,-3.6934,-3.6985,-3.6992,-3.6956,-3.6953,-3.696,-3.7001,-3.7018,-3.7023,-3.7103,-3.7032,-3.7036,-3.7039,-3.704,-3.7247,-3.725,0,0,0,0,0,0,-3.6858,-3.6868,-3.697,-3.6973,-3.6895,-3.6934,-3.694,-3.6966,-3.6991,-3.6993,-3.6963,-3.6958,-3.7011,-3.7018,-3.7024,-3.7118,-3.7037,-3.7041,-3.7043,-3.7244,-3.7248,-3.7251,0,0,0,0,0,0,-3.6856,-3.6868,-3.6968,-3.692,-3.6932,-3.6939,-3.6969,-3.6969,-3.6986,-3.6996,-3.6997,-3.6979,-3.701,-3.7018,-3.708,-3.7119,-3.7043,-3.7047,-3.7241,-3.7245,-3.7249,-3.7306,0,0,0,0,0,0,-3.6852,-3.6867,-3.6898,-3.6921,-3.6934,-3.7023,-3.6972,-3.6972,-3.6994,-3.6989,-3.7012,-3.7013,-3.7008,-3.7073,-3.7084,-3.7124,-3.705,-3.7237,-3.7243,-3.7248,-3.7301,-3.7312,-3.7321,0,0,0,0,0,-3.6847,-3.6912,-3.69,-3.6913,-3.6974,-3.7026,-3.7033,-3.7027,-3.6997,-3.7028,-3.7035,-3.7012,-3.7114,-3.708,-3.7092,-3.7133,-3.7235,-3.7241,-3.7248,-3.7296,-3.731,-3.7321,0,0,0,0,0,0,-3.6892,-3.6914,-3.6902,-3.6976,-3.6999,-3.7019,-3.7057,-3.7042,-3.7073,-3.7067,-3.7057,-3.7062,-3.7126,-3.7136,-3.7098,-3.7211,-3.7169,-3.7178,-3.7202,-3.7215,-3.7225,-3.7221,-3.7054,0,0,0,0,0,-3.6911,-3.6953,-3.6969,-3.7033,-3.7046,-3.705,-3.7072,-3.7065,-3.7089,-3.7098,-3.7109,-3.7132,-3.7168,-3.7192,-3.7227,-3.7303,-3.7306,-3.7337,-3.7347,-3.7356,-3.7363,-3.7403,-3.7416,-3.7272,-3.7272,-3.7271,0,0,-3.695,-3.6967,-3.6994,-3.7043,-3.706,-3.7102,-3.7058,-3.7104,-3.7135,-3.7104,-3.7163,-3.7172,-3.7197,-3.7265,-3.7296,-3.7275,-3.7404,-3.7364,-3.737,-3.7373,-3.741,-3.7424,-3.7436,-3.7276,-3.7275,-3.7274,0,0,-3.7042,-3.706,-3.7115,-3.7133,-3.7161,-3.7163,-3.7176,-3.7198,-3.7203,-3.7262,-3.724,-3.7276,-3.734,-3.7357,-3.7375,-3.7474,-3.7454,-3.7486,-3.7538,-3.7577,-3.7588,-3.7598,-3.7632,-3.7645,-3.7493,-3.7493,-3.7494,0,-3.7087,-3.715,-3.7145,-3.7193,-3.7214,-3.719,-3.7244,-3.7262,-3.7299,-3.7314,-3.729,-3.7369,-3.7384,-3.7456,-3.748,-3.7496,-3.7509,-3.7482,-3.7588,-3.7598,-3.7607,-3.7639,-3.7652,-3.7497,-3.7497,-3.7496,-3.7496,0,-3.7203,-3.7247,-3.7288,-3.7325,-3.7351,-3.7402,-3.7403,-3.743,-3.7421,-3.7426,-3.7485,-3.7502,-3.7539,-3.7556,-3.7548,-3.7627,-3.7613,-3.7589,-3.7547,-3.7624,-3.7654,-3.7667,-3.7502,-3.7501,-3.75,-3.7499,0,0,-3.7324,-3.7358,-3.7373,-3.7389,-3.7417,-3.7451,-3.75,-3.7538,-3.756,-3.7587,-3.7627,-3.7681,-3.7659,-3.7679,-3.7673,-3.7707,-3.7782,-3.7678,-3.7679,-3.7696,-3.7869,-3.7886,-3.79,-3.777,-3.7773,-3.7775,-3.7866,0,-3.7416,-3.7504,-3.75,-3.7581,-3.7621,-3.7599,-3.7642,-3.7663,-3.7669,-3.7703,-3.7708,-3.7746,-3.7715,-3.7727,-3.776,-3.7766,-3.7817,-3.776,-3.7806,-3.7807,-3.7799,-3.7916,-3.7934,-3.802,-3.7878,-3.788,-3.7882,0,-3.7536,-3.7567,-3.7652,-3.7674,-3.7691,-3.773,-3.7763,-3.7797,-3.782,-3.7821,-3.7844,-3.7832,-3.788,-3.7838,-3.7904,-3.7865,-3.7884,-3.789,-3.7893,-3.7896,-3.7848,-3.792,-3.8047,-3.8059,-3.79,-3.7899,-3.7897,0,-3.7614,-3.7677,-3.7736,-3.7751,-3.7778,-3.7806,-3.7818,-3.7839,-3.7862,-3.7891,-3.7905,-3.7939,-3.7957,-3.7983,-3.798,-3.795,-3.8047,-3.8005,-3.8048,-3.8048,-3.8068,-3.8066,-3.8198,-3.8083,-3.8083,-3.8082,-3.8082,0,-3.7716,-3.7769,-3.7771,-3.7808,-3.7866,-3.7861,-3.7918,-3.7927,-3.7946,-3.7982,-3.7965,-3.8,-3.7994,-3.8028,-3.8026,-3.808,-3.8089,-3.809,-3.8089,-3.8091,-3.8091,-3.8102,-3.8095,-3.8086,-3.8085,-3.8084,-3.8084,0,-3.7813,-3.7817,-3.7879,-3.7901,-3.7907,-3.7949,-3.7966,-3.8,-3.8004,-3.805,-3.8061,-3.8067,-3.8106,-3.8106,-3.8151,-3.8149,-3.8215,-3.8208,-3.8208,-3.8206,-3.8248,-3.8244,-3.839,-3.8409,-3.8283,-3.8284,-3.8285,0,-3.7877,-3.7917,-3.7943,-3.7967,-3.7982,-3.802,-3.8043,-3.804,-3.8064,-3.8094,-3.8123,-3.8161,-3.8191,-3.8255,-3.8262,-3.8296,-3.8288,-3.8337,-3.8293,-3.8294,-3.8287,-3.8284,-3.8287,-3.8345,-3.8347,-3.8348,-3.8349,0,-3.7991,-3.7991,-3.8026,-3.8061,-3.8089,-3.8117,-3.8142,-3.8162,-3.8161,-3.8189,-3.823,-3.8253,-3.8299,-3.8336,-3.8369,-3.838,-3.8364,-3.8363,-3.8374,-3.8376,-3.8374,-3.8374,-3.823,-3.8359,-3.8358,-3.8357,-3.8357,-3.8356,-3.8072,-3.8107,-3.813,-3.8169,-3.8188,-3.8212,-3.8244,-3.8253,-3.8287,-3.8325,-3.832,-3.8365,-3.8386,-3.8429,-3.8443,-3.8477,-3.8459,-3.8477,-3.8481,-3.8484,-3.8489,-3.837,-3.8483,-3.8483,-3.8482,-3.8482,-3.8482,0,-3.8184,-3.8198,-3.8234,-3.8271,-3.8301,-3.8285,-3.8312,-3.8337,-3.8377,-3.8399,-3.843,-3.8475,-3.8511,-3.8522,-3.8557,-3.8582,-3.8575,-3.8591,-3.8588,-3.8591,-3.8503,-3.8489,-3.8595,-3.8595,-3.8595,-3.8595,-3.8595,-3.8595,-3.8246,-3.8303,-3.8305,-3.8371,-3.8384,-3.8429,-3.8445,-3.8467,-3.8484,-3.8537,-3.8567,-3.8574,-3.8591,-3.8627,-3.8659,-3.8661,-3.8674,-3.8692,-3.8691,-3.8608,-3.8597,-3.8586,-3.8573,-3.8695,-3.8695,-3.8776,-3.8776,-3.8777]},{"header":{"parameterUnit":"m.s-1","parameterCategory":1,"la1":30.2991,"la2":30.254,"lo1":-89.0895,"lo2":-89.0444,"dy":0.0017,"dx":0.0017,"nx":28,"ny":28,"refTime":"2025-04-30T09:00:00:Z","depth":0,"parameterNumber":3,"parameterNumberName":"V-component_of_WINDS"},"data":[0,0,0,0,0,0,0,0,0,0,0,0,0,0,0,0,0,0,0,0,0,0,0,0,0,0,0,0,0,0,0,0,0,0,0,0,0,0,0,0,0,0,0,0,0,0,0,0,0,0,0,0,0,0,0,0,0,0,3.3763,3.3763,0,3.3765,3.3766,3.3766,3.3709,3.3707,3.3706,3.3705,3.3706,3.3707,3.3709,0,0,0,0,0,0,0,0,0,0,0,0,0,3.371,3.3711,3.3763,3.3763,3.3763,3.3765,3.3766,3.3766,3.3709,3.3707,3.3706,3.3704,3.3706,3.3707,3.3709,0,0,0,0,0,0,0,0,0,0,0,0,0,3.3725,3.3712,3.3763,3.3736,3.3733,3.3765,3.3766,3.3766,3.371,3.3707,3.3705,3.3703,3.3705,3.3707,3.3709,3.3768,0,0,3.3716,3.3717,0,0,0,0,0,0,0,0,3.3724,3.3727,3.374,3.3738,3.3735,3.3735,3.3747,3.3766,3.371,3.3719,3.3704,3.3702,3.3717,3.3718,3.3724,3.3768,3.3768,3.3716,3.3717,3.3718,3.3719,0,0,0,0,0,0,0,3.3723,3.3726,3.3764,3.374,3.3737,3.3723,3.3722,3.3751,3.3731,3.3718,3.3714,3.3715,3.3716,3.3722,3.3723,3.3768,3.3716,3.3718,3.3719,3.372,3.386,3.3863,0,0,0,0,0,0,3.3726,3.3726,3.3764,3.3764,3.3724,3.3726,3.3725,3.3737,3.373,3.3727,3.3717,3.3712,3.3719,3.3721,3.3723,3.379,3.3718,3.372,3.3722,3.3858,3.3861,3.3863,0,0,0,0,0,0,3.3725,3.373,3.3764,3.3744,3.3747,3.3729,3.3743,3.3738,3.3744,3.3729,3.3725,3.3726,3.3717,3.372,3.3757,3.379,3.3721,3.3723,3.3855,3.3859,3.3862,3.3926,0,0,0,0,0,0,3.3724,3.373,3.3752,3.3745,3.3748,3.3798,3.3745,3.374,3.3748,3.3742,3.3738,3.3735,3.3716,3.3754,3.3759,3.3791,3.3725,3.3852,3.3857,3.3861,3.3921,3.3932,3.3941,0,0,0,0,0,3.3722,3.377,3.3753,3.3758,3.3776,3.38,3.3802,3.378,3.3751,3.3773,3.3764,3.3735,3.3786,3.3759,3.3764,3.3797,3.385,3.3855,3.3861,3.3917,3.393,3.394,0,0,0,0,0,0,3.3781,3.3768,3.375,3.3797,3.38,3.3791,3.3817,3.3794,3.3805,3.3799,3.3771,3.377,3.3812,3.3808,3.3778,3.3853,3.3813,3.3819,3.3854,3.3866,3.3875,3.3874,3.3727,0,0,0,0,0,3.38,3.3821,3.3809,3.3851,3.3854,3.3836,3.3846,3.3828,3.383,3.3831,3.3824,3.3827,3.3843,3.3855,3.3869,3.3921,3.3919,3.3947,3.3957,3.3965,3.397,3.3996,3.4008,3.3881,3.3881,3.3881,0,0,3.3838,3.3834,3.3849,3.3863,3.3863,3.3885,3.3837,3.3862,3.3878,3.3835,3.3868,3.3864,3.3865,3.391,3.3929,3.3908,3.4005,3.3972,3.3978,3.3979,3.4003,3.4015,3.4026,3.3885,3.3884,3.3884,0,0,3.3918,3.3918,3.3953,3.3955,3.3956,3.3944,3.3952,3.3947,3.3942,3.3976,3.3943,3.3962,3.3992,3.3993,3.3998,3.4081,3.4054,3.4087,3.4137,3.4163,3.4173,3.4181,3.4209,3.422,3.4093,3.4093,3.4093,0,3.3966,3.3998,3.3974,3.4002,3.4009,3.3971,3.4006,3.4009,3.4015,3.402,3.3997,3.4033,3.4031,3.4075,3.4096,3.4101,3.411,3.4086,3.4173,3.4182,3.4189,3.4216,3.4227,3.4096,3.4096,3.4096,3.4095,0,3.4055,3.4078,3.4106,3.4113,3.4123,3.4155,3.4136,3.4149,3.4131,3.4122,3.4157,3.4154,3.4166,3.4176,3.4159,3.4218,3.4205,3.4178,3.4136,3.4206,3.423,3.424,3.4102,3.4101,3.4099,3.4098,0,0,3.4171,3.4165,3.4176,3.4178,3.4177,3.4194,3.4224,3.4237,3.4248,3.4254,3.4277,3.4304,3.4279,3.4285,3.4268,3.4291,3.4355,3.4261,3.4261,3.4277,3.4418,3.4437,3.4449,3.4339,3.4341,3.4342,3.4418,0,3.4248,3.4298,3.4278,3.4329,3.4349,3.4315,3.434,3.4343,3.4335,3.4351,3.4342,3.436,3.4327,3.433,3.4352,3.4343,3.4383,3.4337,3.4359,3.436,3.4357,3.4462,3.4481,3.4553,3.4427,3.4429,3.443,0,3.4344,3.4354,3.4407,3.4402,3.441,3.4434,3.4443,3.446,3.4461,3.4454,3.4461,3.4439,3.4467,3.4428,3.4466,3.4435,3.4443,3.4441,3.4443,3.4442,3.4398,3.4462,3.4575,3.4585,3.4445,3.4444,3.4443,0,3.4421,3.4448,3.4483,3.4486,3.4482,3.4499,3.4498,3.4498,3.4507,3.4516,3.4521,3.4534,3.454,3.4551,3.4532,3.4505,3.4573,3.4532,3.4566,3.4567,3.458,3.4579,3.4694,3.4589,3.4589,3.4589,3.4589,0,3.4508,3.4541,3.4517,3.4539,3.4575,3.4553,3.459,3.4585,3.4585,3.4605,3.4576,3.4595,3.4571,3.4588,3.4574,3.4607,3.4611,3.4605,3.46,3.4606,3.4607,3.461,3.4603,3.4592,3.4591,3.4591,3.459,0,3.4599,3.4585,3.462,3.4614,3.4613,3.464,3.4634,3.4654,3.4644,3.467,3.4674,3.4659,3.4678,3.4661,3.4679,3.467,3.4713,3.4703,3.4712,3.4709,3.4744,3.474,3.4863,3.4877,3.4765,3.4766,3.4767,0,3.4654,3.4679,3.4676,3.4687,3.4688,3.4706,3.4715,3.4695,3.4705,3.4709,3.4728,3.4744,3.4755,3.4786,3.4777,3.479,3.4778,3.482,3.478,3.4785,3.4777,3.4775,3.4776,3.4828,3.4829,3.483,3.4831,0,3.4753,3.4745,3.4759,3.4771,3.4783,3.4791,3.4797,3.4808,3.4787,3.48,3.4819,3.4828,3.4846,3.4861,3.4872,3.487,3.4847,3.4845,3.4853,3.4858,3.4862,3.4859,3.4733,3.4841,3.484,3.4839,3.4839,3.4839,3.4827,3.4847,3.4848,3.4865,3.4867,3.4874,3.4891,3.4885,3.49,3.4912,3.49,3.4922,3.4923,3.4934,3.4936,3.4953,3.4935,3.4948,3.495,3.4953,3.4958,3.4861,3.4955,3.4955,3.4954,3.4954,3.4954,0,3.4923,3.4922,3.4938,3.4947,3.4961,3.4939,3.4944,3.4957,3.4976,3.498,3.4992,3.5013,3.5028,3.502,3.5034,3.5049,3.5038,3.5053,3.505,3.505,3.4974,3.4964,3.5061,3.5061,3.5061,3.5061,3.5061,3.5061,3.4975,3.5008,3.5,3.5033,3.5032,3.5053,3.5058,3.5064,3.5066,3.5091,3.5104,3.5099,3.5098,3.5111,3.5124,3.5121,3.5126,3.5144,3.5138,3.5066,3.5056,3.5045,3.5036,3.5146,3.5146,3.5213,3.5213,3.5214]}]]